THOR ABLESTAR DEB, 126

Orbit data source: Space-Track

THOR ABLESTAR DEB, 126 is space debris in LEO originally from a launch on Thu, 29 Jun 1961 UTC launched from the Air Force Eastern Test Range (AFETR). Debris objects in space refer to the collection of defunct objects orbiting the Earth. Examples of debris include non-operational satellites, rocket bodies, and fragments generated from explosions, collisions, or faulty payload assembly.

Loading next visibility...
Identifier
126, 1961-015L
Orbit
LEO
Country
Flag of USUS
Related business
Manufacturer
Unknown
Mission
Spacecraft
Bus & Motor
Unknown
Mass
Unknown
Launch date (UTC)
1961-06-29 (64 years ago)
Launch vehicle
Unknown
Launch site
Air Force Eastern Test Range (AFETR)
Object type
Payload
Rocket body
Debris
Shape & HBR
Unknown
Radar Cross Section
0.360 m², Medium (>0.1 m² and < 1m²)

Expand to show TLE details & history
Last TLE update: 1 day ago

TLE from 1 day ago
0 THOR ABLESTAR DEB
1 00126U 61015L   25260.95208894  .00001411  00000-0  43362-3 0  9990
2 00126  66.7073 102.4637 0052437  99.8252 260.8780 14.43730202325286
Epoch: 2025-09-17T22:51Z
TLE epoch observation values (Epoch: 2025-09-17T22:51:00.484Z)
Latitude
0.00003°
Longitude
122.59104°
Altitude
754.436 km
Speed
7.475 km/s
True Right ascension
06h 49m 51s
True Declination
0° 00' 00"
Sunlit
Object was in daylight at epoch
Visualization orbit readout
Latitude
Unknown
Longitude
Unknown
Altitude
Unknown
Speed
Unknown
Apparent Right ascension
Unknown
Apparent Declination
Unknown
Sunlit
N/A
Visualization observer readout
Local Sidereal Time
21:53:32
Azimuth
Unknown
Elevation
Unknown
Doppler factor
Unknown
Orbital elements
Apogee altitude
781.913 km
Perigee altitude
707.215 km
Semi-major axis
7,122.701 km
Eccentricity
0.00524
Inclination
66.7073°
RAAN
102.4637°
Arg. of periapsis
99.8252°
True anomaly
260.28534°
Mean anomaly
260.878°
Eccentric anomaly
260.58161°
Mean motion
3.61057 °/min
Orbital period
99.71 mins
BSTAR
0.00043362
Loading maneuver chart data...
Computing Atmospheric mass density...

Documentation

Showing up to 5 results
|